Regional Weather Roundup
Issued by NWS

Home | Current Version | Previous Version | Graphics & Text | Print | Product List | Glossary On
Versions: 1 2 3 4 5 6 7 8 9 10 11 12 13 14 15 16 17 18 19 20 21 22 23 24 25 26 27 28 29 30 31 32 33 34 35 36 37 38 39 40 41 42 43 44 45 46 47 48 49 50
000
ASUS45 KPSR 310610
RWRAZ

ARIZONA REGIONAL HOURLY WEATHER ROUNDUP
NATIONAL WEATHER SERVICE PHOENIX AZ
1100 PM MST FRI JAN 30 2015

NOTE: FAIR INDICATES FEW OR NO CLOUDS BELOW 12,000 FEET WITH NO
SIGNIFICANT WEATHER AND/OR OBSTRUCTIONS TO VISIBILITY.

AZZ001>003-036-310700-
NORTHWEST ARIZONA

CITY           SKY/WX    TMP DP  RH WIND       PRES   REMARKS
BULLHEAD CITY  CLOUDY    55  48  76 NE8       29.88R
KINGMAN        CLOUDY    46  44  93 NE6       29.87R
6HR MIN TEMP:  46; 6HR MAX TEMP:  48; 6HR PCP: TRACE;

$$

AZZ004>008-015-016-018-310700-
NORTH CENTRAL ARIZONA

CITY           SKY/WX    TMP DP  RH WIND       PRES   REMARKS
GRAND CANYON   LGT RAIN  38  37  97 CALM      29.91R FOG
6HR MIN TEMP:  36; 6HR MAX TEMP:  38; 6HR PCP:  0.03;

PRESCOTT       CLOUDY    43  39  86 SE6       29.89S
6HR MIN TEMP:  43; 6HR MAX TEMP:  47; 6HR PCP: TRACE;

FLAGSTAFF      CLOUDY    38  36  92 SW12      29.91S WCI  30
6HR MIN TEMP:  38; 6HR MAX TEMP:  39; 6HR PCP:  0.05;

PAYSON         DRIZZLE   43  43 100 CALM      29.93S
$$

AZZ009>014-017-310700-
NORTHEAST ARIZONA

CITY           SKY/WX    TMP DP  RH WIND       PRES   REMARKS
WINSLOW        LGT RAIN  44  42  93 E6        29.90R
6HR MIN TEMP:  44; 6HR MAX TEMP:  47; 6HR PCP:  0.03;

SAINT JOHNS    RAIN      42  42 100 NW7       29.92S FOG
6HR MIN TEMP:  42; 6HR MAX TEMP:  49; 6HR PCP:  0.18;

WINDOW ROCK    LGT SNOW  34  31  88 CALM      29.95S FOG
6HR MIN TEMP:  34; 6HR MAX TEMP:  35; 6HR PCP:  0.11;

SHOW LOW       LGT RAIN  36  34  93 S14       29.95F WCI  27
$$

AZZ023-310700-
GREATER PHOENIX AREA

CITY           SKY/WX    TMP DP  RH WIND       PRES   REMARKS
PHOENIX        CLOUDY    55  53  93 SE3       29.85S
6HR MIN TEMP:  55; 6HR MAX TEMP:  59; 6HR PCP: TRACE;

BUCKEYE          N/A     57  57 100 E8        29.85F
LUKE AFB       LGT RAIN  57  54  90 CALM      29.84F
DEER VALLEY    CLOUDY    54  52  93 E5        29.85F
6HR MIN TEMP:  54; 6HR MAX TEMP:  55; 6HR PCP:  0.01;

SCOTTSDALE     CLOUDY    55  52  88 CALM      29.87S
6HR MIN TEMP:  55; 6HR MAX TEMP:  57; 6HR PCP:  0.01;

MESA-GATEWAY     N/A     54  54 100 CALM      29.88R
$$

AZZ027-028-310700-
SOUTHWEST MARICOPA COUNTY AND PINAL COUNTY

CITY           SKY/WX    TMP DP  RH WIND       PRES   REMARKS
CASA GRANDE    CLOUDY    55  52  88 CALM      29.86S
6HR MIN TEMP:  55; 6HR MAX TEMP:  57;

GILA BEND      LGT RAIN  58  56  92 CALM      29.84S
6HR MIN TEMP:  58; 6HR MAX TEMP:  63;

$$

AZZ503-504-507>509-310700-
SOUTHEAST ARIZONA

CITY           SKY/WX    TMP DP  RH WIND       PRES   REMARKS
TUCSON         LGT RAIN  54  52  93 CALM      29.89F FOG
6HR MIN TEMP:  53; 6HR MAX TEMP:  57; 6HR PCP:  0.62;

DAVIS-MONTHAN  HVY RAIN  54  54 100 W2        29.88R FOG
6HR MIN TEMP:  53; 6HR MAX TEMP:  56; 6HR PCP:  0.60;

NOGALES        LGT RAIN  50  47  89 S5        29.90S
6HR MIN TEMP:  49; 6HR MAX TEMP:  52; 6HR PCP:  0.42;

SIERRA VISTA   CLOUDY    46  45  93 SE5       29.92S
                                      6HR PCP:  0.22;

SAFFORD        LGT RAIN  47  46  97 SE7       29.92F FOG
6HR MIN TEMP:  47; 6HR MAX TEMP:  48; 6HR PCP:  0.31;

$$

AZZ020-021-025-026-031-310700-
SOUTHWEST ARIZONA

CITY           SKY/WX    TMP DP  RH WIND       PRES   REMARKS
YUMA           CLOUDY    62  53  72 CALM      29.85R
6HR MIN TEMP:  62; 6HR MAX TEMP:  67; 6HR PCP: TRACE;

$$

CAZ031-033-041-043-047-048-061-310700-
SOUTHERN CALIFORNIA

CITY           SKY/WX    TMP DP  RH WIND       PRES   REMARKS
DOWNTOWN L.A.  MOCLDY    60  54  80 CALM      29.86S
6HR MIN TEMP:  59; 6HR MAX TEMP:  63; 6HR PCP: TRACE;

L.A. AIRPORT   MOCLDY    59  57  93 CALM      29.87R
6HR MIN TEMP:  58; 6HR MAX TEMP:  63; 6HR PCP:  0.03;

SAN DIEGO      CLOUDY    61  56  83 S5        29.91R
6HR MIN TEMP:  61; 6HR MAX TEMP:  63;

BURBANK        MOCLDY    54  51  90 N3        29.86S
6HR MIN TEMP:  54; 6HR MAX TEMP:  60;

ONTARIO        MOCLDY    58  49  72 W3        29.88R
6HR MIN TEMP:  57; 6HR MAX TEMP:  65; 6HR PCP:  0.01;

RIVERSIDE      MOCLDY    56  52  86 CALM      29.89R
6HR MIN TEMP:  55; 6HR MAX TEMP:  65; 6HR PCP:  0.03;

PALM SPRINGS   MOCLDY    58  52  80 SW3       29.87R
6HR MIN TEMP:  58; 6HR MAX TEMP:  66;

EL CENTRO NAS  PTCLDY    55  48  77 SW5       29.85R
6HR MIN TEMP:  55; 6HR MAX TEMP:  68;

IMPERIAL       PTCLDY    56  48  74 W6        29.84R
6HR MIN TEMP:  56; 6HR MAX TEMP:  68;

BLYTHE         CLOUDY    59  54  83 NW5       29.85S
6HR MIN TEMP:  58; 6HR MAX TEMP:  65;

NEEDLES        CLOUDY    56  48  74 N6        29.86S
6HR MIN TEMP:  56; 6HR MAX TEMP:  60;

$$

NVZ020-UTZ003-310700-
SOUTHERN NEVADA-UTAH

CITY           SKY/WX    TMP DP  RH WIND       PRES   REMARKS
LAS VEGAS      LGT RAIN  51  44  77 E6        29.84S
6HR MIN TEMP:  51; 6HR MAX TEMP:  54; 6HR PCP: TRACE;

SALT LAKE CITY CLOUDY    41  36  82 W7        29.97S
6HR MIN TEMP:  40; 6HR MAX TEMP:  42; 6HR PCP: TRACE;

$$

NMZ009-TXZ055-310700-
NEW MEXICO-WEST TEXAS

CITY           SKY/WX    TMP DP  RH WIND       PRES   REMARKS
ALBUQUERQUE    CLOUDY    35  32  88 NW5       30.04F WCI  31
6HR MIN TEMP:  34; 6HR MAX TEMP:  37; 6HR PCP:  0.02;

EL PASO        LGT RAIN  44  40  85 CALM      30.02F
6HR MIN TEMP:  42; 6HR MAX TEMP:  47; 6HR PCP:  0.18;

$$


........................KEY........................
SKY/WX - SKY CONDITION/WEATHER
TMP    - TEMPERATURE IN FAHRENHEIT
DP     - DEW POINT IN FAHRENHEIT
RH     - RELATIVE HUMIDITY IN PERCENT
WIND   - DIRECTION AND SPEED IN MILES PER HOUR (MPH)
VRB    - VARIABLE WIND DIRECTION
PRES   - MEAN SEA LEVEL PRESSURE IN INCHES OF MERCURY
         F - FALLING PRESSURE   R - RISING PRESSURE
         S - STEADY PRESSURE
VSB    - VISIBILITY IN MILES
HX     - HEAT INDEX IN FAHRENHEIT
WCI    - WIND CHILL INDEX IN FAHRENHEIT
TC     - TEMPERATURE IN CELSIUS WHICH IS ALSO KNOWN AS
         TEMPERATURE IN CENTIGRADE
AFB    - AIR FORCE BASE
         LUKE AFB IS LUKE AIR FORCE BASE
         DAVIS-MONTHAN IS DAVIS-MONTHAN AIR FORCE BASE
NAS    - NAVAL AIR STATION
         EL CENTRO NAS IS EL CENTRO NAVAL AIR STATION
N/A    - NOT AVAILABLE


USA.gov is the U.S. government's official web portal to all federal, state and local government web resources and services.